Home > Weather > Dalian > Past weeks

Flag for China Past Weather in Dalian, Liaoning, China — Yesterday and Last 2 Weeks

Now
79 °F

Fog.


Feels Like: 83 °F
Forecast: 77 / 86 °F
Wind: 13 mph from Southeast

Location: Dalian Airport

Current Time: Jul 30, 2016 at 5:17:44 PM

Latest Report: Jul 30, 2016 at 4:30 PM


Visibility: 2 mi

Pressure: 29.77 "Hg

Humidity: 94%

Dew Point: 77 °F

Location of DalianLocation

Past Weather in Dalian — Graph

°F

Dalian Temperature Yesterday

Maximum temperature yesterday: 86 °F (at 1:30 PM)
Minimum temperature yesterday: 75 °F (at 11:00 PM)
Average temperature yesterday: 79 °F

High & Low Weather Summary for the Past Weeks

 TemperatureHumidityPressure
High93 °F (Jul 25, 11:00 AM)100% (Jul 16, 1:00 AM)29.83 "Hg (Jul 16, 1:00 AM)
Low66 °F (Jul 17, 2:30 AM)51% (Jul 17, 1:30 PM)29.53 "Hg (Jul 16, 1:30 AM)
Average78 °F87%29.68 "Hg
* Reported Jul 15 4:00 PM — Jul 30 4:00 PM, Dalian, Weather by CustomWeather, © 2016

Note: Actual official high and low records may vary slightly from our data, if they occured in-between our weather recording intervals... More about our weather records

Advertising

Dalian Weather History for the Previous 24 Hours

Scroll right to see more
 ConditionsComfort  
Time TempWeatherWind HumidityBarometerVisibility
4:00 PM
Sat, Jul 30
81 °FFog.15 mph89%29.77 "Hg3 mi
3:30 PM81 °FFog.15 mph89%29.77 "Hg3 mi
3:00 PM82 °FBroken clouds.13 mph84%29.80 "Hg4 mi
2:30 PM82 °FBroken clouds.13 mph84%29.80 "Hg4 mi
2:00 PM82 °FBroken clouds.13 mph84%29.80 "Hg4 mi
1:30 PM82 °FBroken clouds.13 mph89%29.83 "Hg4 mi
1:00 PM82 °FFog.15 mph84%29.83 "Hg3 mi
12:30 PM82 °FFog.13 mph89%29.83 "Hg3 mi
12:00 PM79 °FFog.13 mph94%29.83 "Hg2 mi
11:30 AM81 °FFog.10 mph89%29.83 "Hg3 mi
11:00 AM81 °FBroken clouds.10 mph89%29.83 "Hg4 mi
10:30 AM79 °FFog.10 mph94%29.83 "Hg3 mi
10:00 AM79 °FFog.13 mph94%29.83 "Hg3 mi
9:30 AM79 °FFog.8 mph94%29.83 "Hg2 mi
9:00 AM79 °FFog.8 mph94%29.83 "Hg2 mi
8:30 AM77 °FFog.10 mph100%29.83 "Hg1 mi
8:00 AM77 °FLight rain. Fog.8 mph100%29.83 "Hg1 mi
7:30 AM75 °FLight rain. Fog.8 mph100%29.83 "Hg1 mi
7:00 AM75 °FLight rain. Fog.10 mph100%29.80 "Hg1 mi
6:30 AM75 °FLight rain. Fog.8 mph100%29.80 "Hg1 mi
6:00 AM75 °FFog.10 mph100%29.80 "Hg1 mi
5:30 AM75 °FFog.8 mph100%29.77 "Hg1 mi
5:00 AM75 °FFog.8 mph100%29.77 "Hg1 mi
4:30 AM75 °FFog.8 mph100%29.77 "Hg1 mi
4:00 AM75 °FFog.8 mph100%29.77 "Hg1 mi
3:30 AM75 °FFog.6 mph100%29.77 "Hg1 mi
3:00 AM75 °FFog.6 mph100%29.77 "Hg1 mi
2:30 AM75 °FFog.8 mph100%29.77 "Hg1 mi
2:00 AM75 °FFog.8 mph100%29.77 "Hg1 mi
1:30 AM75 °FFog.8 mph100%29.77 "Hg1 mi
1:00 AM77 °FFog.8 mph94%29.77 "Hg1 mi
12:30 AM77 °FFog.8 mph94%29.77 "Hg1 mi
12:00 AM75 °FFog.6 mph100%29.77 "Hg1 mi
11:30 PM
Fri, Jul 29
75 °FDrizzle. Fog.8 mph100%29.77 "Hg1 mi
11:00 PM75 °FDrizzle. Fog.8 mph100%29.77 "Hg1 mi
10:30 PM77 °FFog.10 mph94%29.77 "Hg1 mi
10:00 PM77 °FFog.10 mph94%29.77 "Hg3 mi
9:30 PM77 °FFog.10 mph94%29.77 "Hg3 mi
9:00 PM77 °FFog.10 mph94%29.77 "Hg3 mi
8:30 PM77 °FFog.10 mph94%29.77 "Hg3 mi
8:00 PM77 °FFog.10 mph94%29.74 "Hg3 mi
7:30 PM77 °FFog.10 mph94%29.74 "Hg3 mi
7:00 PM77 °FFog.10 mph94%29.74 "Hg2 mi
6:30 PM77 °FFog.10 mph94%29.74 "Hg2 mi
6:00 PM77 °FFog.10 mph94%29.74 "Hg2 mi
5:30 PM79 °FFog.13 mph94%29.71 "Hg2 mi
5:00 PM81 °FFog.13 mph89%29.71 "Hg3 mi
Weather by CustomWeather, © 2016

See weather overviewHow to use our weather pages